Weather in Porotnikovo

Russia / Tomsk District     57°00′18″N   82°20′50″E
temp.,
°C
wind,
m/s
gust,
m/s
humid.,
%
clouds,
%
prec.,
mm/h
press.,
hPa
HPBL,
m
21 april, wed
wed2101:00−5ssw41095100 0.4 1020799
04:00−5s41095100 0.8 1018703
07:00−5s3994100 1.0 1018559
10:00−2se2388100 0.4 1019589
13:00−1ene3484100 1.0 1021960
16:00+1ene4576100 0.6 10231150
19:000ne4779100 1.2 10271019
22:00−3nne3118915 0.1 1031396
22 april, thu
thu2201:00−6nne39945 0.1 1034231
04:00−7nne28965 0.0 1037172
07:00−8nne28935 0.0 1040177
10:00−1nne36785 0.0 1042579
13:00+1nne3569100 0.1 10431373
16:00+2nne3470100 0.1 10441276
19:00+2nne247776 0.3 1045720
22:00−4nne11945 0.0 104710
23 april, fri
fri2301:00−6ne11975 0.0 104810
04:00−6nne11988 0.0 104810
07:00−5nne12935 0.0 104852
10:00+1nne12765 0.0 1049531
13:00+4ne226280 0.0 10471212
16:00+5nne225882 0.0 10451346
19:00+4ne23735 0.1 1045138
22:00−3ene119582 0.0 104510
24 april, sat
sat2401:00−3n11965 0.0 104410
04:00−4nne11965 0.0 104233
07:00−3nne13915 0.0 104275
10:00+3ne13715 0.0 1040605
13:00+5nne23605 0.0 10381178
16:00+7nne23595 0.0 10361301
19:00+5n237657 0.0 103590
22:00−1n11925 0.0 103510
25 april, sun
sun2501:00−2n00945 0.0 103410
04:00−3wnw11965 0.0 103310
07:00−2wnw119286 0.0 103324
10:00+4w1174100 0.0 1033314
13:00+7w1164100 0.0 1032994
16:00+8w1260100 0.0 10311209
19:00+7sse0073100 0.0 103012
22:00+3sse2184100 0.0 103010